CW9825 Weather Reports


time (UTC)temp
F
wind
direction
speed
knots
gust
knots
rain 1hr
in
rain 24hr
in
rain mn
in
humidity
%
barometer
mb
20260506135537 38 335 4.3 10.4 0.00 0.00 0.00 62 1017.3
20260506135036 38 323 6.1 10.4 0.00 0.00 0.00 63 1017.3
20260506134535 37 280 2.6 7.8 0.00 0.00 0.00 63 1017.3
20260506134033 37 272 2.6 7.8 0.00 0.00 0.00 63 1017.3
20260506133532 37 288 2.6 7.8 0.00 0.00 0.00 63 1017.3
20260506133031 37 333 2.6 7.0 0.00 0.00 0.00 65 1017.3
20260506132533 37 310 1.7 7.0 0.00 0.00 0.00 65 1017.3
20260506132034 36 273 1.7 6.1 0.00 0.00 0.00 65 1017.3
20260506131537 36 289 1.7 7.0 0.00 0.00 0.00 65 1017.2
20260506131029 36 270 1.7 7.0 0.00 0.00 0.00 65 1017.2
20260506130527 36 297 2.6 7.0 0.00 0.00 0.00 65 1017.2
20260506130025 36 266 1.7 7.0 0.00 0.00 0.00 65 1017.2
20260506125530 36 330 2.6 8.7 0.00 0.00 0.00 65 1017.2
20260506125026 36 327 0.9 8.7 0.00 0.00 0.00 65 1017.2
20260506124523 36 306 2.6 8.7 0.00 0.00 0.00 66 1017.1
20260506124022 35 301 1.7 4.3 0.00 0.00 0.00 66 1017.1
20260506123520 35 309 1.7 3.5 0.00 0.00 0.00 66 1017.1
20260506123019 35 309 0.9 3.5 0.00 0.00 0.00 66 1017.1
20260506122519 35 317 0.9 3.5 0.00 0.00 0.00 66 1017.1
20260506122018 35 302 1.7 7.0 0.00 0.00 0.00 66 1017.0
20260506121517 35 296 0.9 4.3 0.00 0.00 0.00 66 1016.9
20260506121016 35 300 1.7 3.5 0.00 0.00 0.00 66 1016.9
20260506120515 35 296 0.9 3.5 0.00 0.00 0.00 65 1016.8
20260506120018 35 288 0.9 3.5 0.00 0.00 0.00 65 1016.7
20260506115518 35 284 0.9 3.5 0.00 0.00 0.00 65 1016.7
20260506115013 35 296 0.9 3.5 0.00 0.00 0.00 65 1016.6
20260506114513 35 308 0.9 2.6 0.00 0.00 0.00 65 1016.5
20260506114012 35 310 0.0 2.6 0.00 0.00 0.00 64 1016.6
20260506113511 35 310 0.9 3.5 0.00 0.00 0.00 64 1016.6
20260506113010 35 311 0.9 4.3 0.00 0.00 0.00 64 1016.6
20260506112510 35 315 1.7 4.3 0.00 0.00 0.00 63 1016.5
20260506112009 35 329 1.7 5.2 0.00 0.00 0.00 63 1016.4
20260506111509 35 327 1.7 5.2 0.00 0.00 0.00 63 1016.5
20260506111009 35 338 1.7 7.0 0.00 0.00 0.00 64 1016.4
20260506110510 35 327 2.6 7.8 0.00 0.00 0.00 64 1016.3
20260506110008 35 325 4.3 7.8 0.00 0.00 0.00 64 1016.3
20260506105507 35 340 4.3 8.7 0.00 0.00 0.00 64 1016.3
20260506105009 35 330 5.2 8.7 0.00 0.00 0.00 64 1016.2
20260506104506 35 333 3.5 10.4 0.00 0.00 0.00 65 1016.2
20260506104005 35 338 4.3 10.4 0.00 0.00 0.00 65 1016.2
20260506103505 35 320 2.6 7.0 0.00 0.00 0.00 66 1016.2
20260506103004 35 334 2.6 7.0 0.00 0.00 0.00 66 1016.2
20260506102503 35 304 0.9 7.0 0.00 0.00 0.00 66 1016.2
20260506102002 35 292 2.6 5.2 0.00 0.00 0.00 66 1016.2
20260506101506 35 329 2.6 5.2 0.00 0.00 0.00 66 1016.2
20260506101002 35 37 1.7 6.1 0.00 0.00 0.00 66 1016.1
20260506100502 35 318 1.7 9.6 0.00 0.00 0.00 66 1016.2
20260506100001 35 355 4.3 9.6 0.00 0.00 0.00 65 1016.1
20260506095603 35 320 4.3 9.6 0.00 0.00 0.00 65 1016.2
20260506095103 35 327 4.3 8.7 0.00 0.00 0.00 65 1016.2
20260506094559 35 307 2.6 7.0 0.00 0.00 0.00 65 1016.1
20260506094058 35 322 3.5 8.7 0.00 0.00 0.00 65 1016.1
20260506093557 35 331 4.3 8.7 0.00 0.00 0.00 65 1016.1
20260506093057 35 321 5.2 8.7 0.00 0.00 0.00 65 1016.1
20260506092556 35 321 2.6 5.2 0.00 0.00 0.00 65 1016.1
20260506092056 35 335 1.7 5.2 0.00 0.00 0.00 65 1016.1
20260506091555 35 327 1.7 4.3 0.00 0.00 0.00 65 1016.0
20260506091055 35 340 1.7 5.2 0.00 0.00 0.00 65 1016.0
20260506090555 35 338 2.6 5.2 0.00 0.00 0.00 65 1016.1
20260506090055 35 325 2.6 4.3 0.00 0.00 0.00 65 1016.0
20260506085554 35 326 2.6 5.2 0.00 0.00 0.00 65 1016.0
20260506085054 35 329 2.6 5.2 0.00 0.00 0.00 65 1015.9
20260506084620 35 327 3.5 5.2 0.00 0.00 0.00 65 1016.0
20260506084054 35 321 2.6 6.1 0.00 0.00 0.00 65 1016.0
20260506083553 35 340 1.7 5.2 0.00 0.00 0.00 65 1015.9
20260506083054 35 355 1.7 5.2 0.00 0.00 0.00 65 1015.8
20260506082553 35 355 2.6 5.2 0.00 0.00 0.00 65 1015.8
20260506082051 35 337 3.5 5.2 0.00 0.00 0.00 65 1015.9
20260506081555 35 338 1.7 5.2 0.00 0.00 0.00 65 1015.8
20260506081052 35 323 2.6 5.2 0.00 0.00 0.00 65 1015.9
20260506080553 35 344 0.9 7.8 0.00 0.00 0.00 65 1015.9
20260506073048 35 360 3.5 7.8 0.00 0.00 0.00 64 1015.7
20260506072546 35 355 2.6 7.0 0.00 0.00 0.00 64 1015.8
20260506072046 36 331 3.5 7.0 0.00 0.00 0.00 64 1015.8
20260506071545 36 333 2.6 7.0 0.00 0.00 0.00 64 1015.7
20260506071045 36 326 2.6 7.8 0.00 0.00 0.00 64 1015.8
20260506070545 36 5 2.6 7.8 0.00 0.00 0.00 64 1015.8
20260506062039 36 5 1.7 7.0 0.00 0.00 0.00 64 1015.7
20260506061539 36 37 3.5 7.8 0.00 0.00 0.00 64 1015.7
20260506061038 36 29 1.7 7.8 0.00 0.00 0.00 64 1015.6
20260506060537 36 360 2.6 8.7 0.00 0.00 0.00 64 1015.6
20260506051029 37 13 3.5 9.6 0.00 0.00 0.00 63 1015.4
20260506050528 37 338 5.2 10.4 0.00 0.00 0.00 63 1015.4
20260506045027 38 324 2.6 10.4 0.00 0.00 0.00 61 1015.3
20260506044552 38 355 4.3 10.4 0.00 0.00 0.00 61 1015.2
20260506044026 38 317 6.1 10.4 0.00 0.00 0.00 61 1015.2
20260506043526 38 355 1.7 10.4 0.00 0.00 0.00 61 1015.2
20260506043025 38 350 4.3 11.3 0.00 0.00 0.00 60 1015.1
20260506042525 38 321 7.0 11.3 0.00 0.00 0.00 60 1015.2
20260506042025 38 347 7.0 10.4 0.00 0.00 0.00 60 1015.1
20260506041525 38 346 5.2 10.4 0.00 0.00 0.00 60 1015.1
20260506041030 38 306 4.3 11.3 0.00 0.00 0.00 60 1015.0
20260506040524 38 10 6.1 11.3 0.00 0.00 0.00 59 1015.1
20260506040028 38 329 5.2 12.2 0.00 0.00 0.00 59 1015.1
20260506035526 38 338 4.3 11.3 0.00 0.00 0.00 59 1015.1
20260506035024 38 300 4.3 10.4 0.00 0.00 0.00 59 1015.0
20260506034544 38 12 5.2 11.3 0.00 0.00 0.00 59 1015.0
20260506034024 39 350 7.0 11.3 0.00 0.00 0.00 59 1015.0
20260506033522 39 355 5.2 10.4 0.00 0.00 0.00 59 1015.0
20260506033022 39 287 4.3 11.3 0.00 0.00 0.00 59 1015.1
20260506032522 39 355 7.0 13.9 0.00 0.00 0.00 59 1015.0
20260506032024 39 331 5.2 13.9 0.00 0.00 0.00 59 1015.1
20260506031522 39 303 6.1 13.9 0.00 0.00 0.00 58 1015.0
20260506031022 39 304 6.1 13.9 0.00 0.00 0.00 58 1015.0
20260506030522 39 344 6.1 13.0 0.00 0.00 0.00 58 1015.0
20260506030021 39 329 7.8 13.0 0.00 0.00 0.00 57 1015.0
20260506025522 39 324 7.0 13.9 0.00 0.00 0.00 57 1014.9
20260506025022 39 321 7.0 13.9 0.00 0.00 0.00 57 1014.9
20260506024520 39 351 7.0 13.0 0.00 0.00 0.00 57 1014.9
20260506024020 39 293 7.0 11.3 0.00 0.00 0.00 56 1014.9
20260506023519 39 325 7.0 11.3 0.00 0.00 0.00 56 1014.8
20260506023018 40 337 6.1 11.3 0.00 0.00 0.00 56 1014.7
20260506022518 40 324 7.8 13.0 0.00 0.00 0.00 56 1014.6
20260506022016 40 330 5.2 13.0 0.00 0.00 0.00 56 1014.5
20260506021516 40 324 6.1 12.2 0.00 0.00 0.00 56 1014.5
20260506021016 40 360 6.1 12.2 0.00 0.00 0.00 55 1014.5
20260506020514 40 338 4.3 12.2 0.00 0.00 0.00 56 1014.4
20260506020014 40 326 2.6 14.8 0.00 0.00 0.00 55 1014.2
20260506015513 40 24 6.1 11.3 0.00 0.00 0.00 55 1014.1
20260506015012 40 333 4.3 10.4 0.00 0.00 0.00 55 1014.1
20260506014512 40 343 4.3 12.2 0.00 0.00 0.00 55 1014.1
20260506014011 40 335 7.0 12.2 0.00 0.00 0.00 54 1014.0
20260506013511 40 343 7.8 12.2 0.00 0.00 0.00 54 1014.0
20260506013010 40 340 5.2 12.2 0.00 0.00 0.00 54 1013.9
20260506012510 41 338 6.1 12.2 0.00 0.00 0.00 54 1013.9
20260506012008 41 308 7.8 13.0 0.00 0.00 0.00 54 1013.9
20260506011513 41 330 7.8 13.0 0.00 0.00 0.00 53 1013.7
20260506011012 41 316 6.1 15.6 0.00 0.00 0.00 54 1013.7
20260506010508 41 307 7.8 15.6 0.00 0.00 0.00 53 1013.6
20260506010010 41 345 5.2 10.4 0.00 0.00 0.00 53 1013.6
20260506005508 41 340 6.1 14.8 0.00 0.00 0.00 53 1013.6
20260506005007 41 269 9.6 14.8 0.00 0.00 0.00 53 1013.5
20260506004513 41 329 8.7 13.0 0.00 0.00 0.00 53 1013.5
20260506004007 41 275 7.0 13.0 0.00 0.00 0.00 53 1013.6
20260506003506 41 327 9.6 13.0 0.00 0.00 0.00 52 1013.5
20260506003008 41 321 6.1 13.0 0.00 0.00 0.00 53 1013.5
20260506002508 42 319 7.8 13.0 0.00 0.00 0.00 52 1013.5
20260506002006 42 306 5.2 13.0 0.00 0.00 0.00 52 1013.5
20260506001506 42 327 5.2 13.9 0.00 0.00 0.00 51 1013.6
20260506001006 42 294 7.8 13.9 0.00 0.00 0.00 51 1013.5
20260506000507 42 321 4.3 11.3 0.00 0.00 0.00 52 1013.4
20260506000105 42 326 4.3 11.3 0.00 0.00 0.00 52 1013.5
20260505235505 42 280 6.1 13.9 0.00 0.00 0.00 51 1013.5
20260505235004 42 347 7.8 13.9 0.00 0.00 0.00 51 1013.4
20260505234508 42 336 7.0 13.0 0.00 0.00 0.00 51 1013.4
20260505234004 42 273 7.0 13.0 0.00 0.00 0.00 51 1013.4
20260505233503 42 287 5.2 12.2 0.00 0.00 0.00 51 1013.5
20260505233007 42 319 3.5 12.2 0.00 0.00 0.00 51 1013.3
20260505232502 42 341 7.0 16.5 0.00 0.00 0.00 51 1013.4
20260505232002 42 320 9.6 16.5 0.00 0.00 0.00 51 1013.5
20260505231506 42 360 7.0 13.0 0.00 0.00 0.00 51 1013.5
20260505231001 42 268 5.2 12.2 0.00 0.00 0.00 51 1013.4
20260505230501 42 302 6.1 15.6 0.00 0.00 0.00 51 1013.4
20260505230002 42 301 4.3 15.6 0.00 0.00 0.00 51 1013.3
20260505225502 43 334 6.1 13.9 0.00 0.00 0.00 52 1013.2
20260505225001 42 355 3.5 10.4 0.00 0.00 0.00 52 1013.2
20260505224601 42 348 5.2 12.2 0.00 0.00 0.00 52 1013.2
20260505224100 43 283 4.3 13.9 0.00 0.00 0.00 51 1013.1
20260505223559 43 319 8.7 13.9 0.00 0.00 0.00 50 1013.2
20260505223059 43 329 6.1 13.9 0.00 0.00 0.00 51 1013.1
20260505222559 43 284 7.8 13.9 0.00 0.00 0.00 50 1013.1
20260505222059 43 303 9.6 14.8 0.00 0.00 0.00 52 1013.1
20260505221601 43 344 9.6 14.8 0.00 0.00 0.00 51 1013.1
20260505221058 42 333 8.7 14.8 0.00 0.00 0.00 51 1013.1
20260505220558 42 325 9.6 14.8 0.00 0.00 0.00 51 1013.1
20260505220105 42 326 7.0 13.9 0.00 0.00 0.00 51 1013.0
20260505215558 43 276 6.1 13.9 0.00 0.00 0.00 51 1013.1
20260505215058 43 317 7.8 14.8 0.00 0.00 0.00 51 1013.1
20260505214605 43 331 5.2 14.8 0.00 0.00 0.00 51 1013.1
20260505214058 43 326 7.0 12.2 0.00 0.00 0.00 51 1013.1
20260505213556 43 350 3.5 12.2 0.00 0.00 0.00 51 1013.1
20260505213103 43 328 5.2 14.8 0.00 0.00 0.00 52 1013.1
20260505212557 42 288 6.1 15.6 0.00 0.00 0.00 51 1013.0
20260505212056 43 336 9.6 17.4 0.00 0.00 0.00 51 1013.0
20260505211602 43 338 9.6 17.4 0.00 0.00 0.00 50 1013.1
20260505211100 43 328 7.8 13.0 0.00 0.00 0.00 51 1013.0
20260505210556 43 309 7.0 18.2 0.00 0.00 0.00 51 1013.0
20260505210056 43 302 8.7 19.1 0.00 0.00 0.00 50 1013.0
20260505205556 43 329 7.8 19.1 0.00 0.00 0.00 51 1013.0
20260505205056 43 330 9.6 15.6 0.00 0.00 0.00 50 1012.9
20260505204600 43 324 7.8 17.4 0.00 0.00 0.00 51 1012.9
20260505204056 43 322 11.3 17.4 0.00 0.00 0.00 50 1013.0
20260505203556 44 340 8.7 15.6 0.00 0.00 0.00 51 1012.9
20260505203056 44 309 7.0 14.8 0.00 0.00 0.00 50 1012.9
20260505202553 43 333 5.2 13.9 0.00 0.00 0.00 52 1012.9
20260505202053 43 343 9.6 13.9 0.00 0.00 0.00 51 1013.0
20260505201553 43 344 5.2 16.5 0.00 0.00 0.00 52 1013.0
20260505201052 43 286 7.8 16.5 0.00 0.00 0.00 51 1013.1
20260505200551 43 292 3.5 20.9 0.00 0.00 0.00 52 1013.1
20260505200050 42 312 9.6 20.9 0.00 0.00 0.00 53 1013.1
20260505195550 42 337 7.0 14.8 0.00 0.00 0.00 53 1013.1
20260505195049 42 323 7.0 13.9 0.00 0.00 0.00 54 1013.1
20260505194550 41 320 6.1 14.8 0.00 0.00 0.00 53 1013.2
20260505194049 41 315 9.6 14.8 0.00 0.00 0.00 53 1013.1
20260505193548 41 299 6.1 13.0 0.00 0.00 0.00 53 1013.1
20260505193052 41 344 5.2 13.9 0.00 0.00 0.00 53 1013.0
20260505192548 41 265 4.3 18.2 0.00 0.00 0.00 53 1013.1
20260505192048 41 298 7.8 18.2 0.00 0.00 0.00 54 1013.0
20260505191556 41 343 7.8 14.8 0.00 0.00 0.00 55 1013.0
20260505191048 41 316 8.7 14.8 0.00 0.00 0.00 55 1013.1
20260505190550 40 319 4.3 13.9 0.00 0.00 0.00 55 1013.1
20260505190047 41 360 7.0 14.8 0.00 0.00 0.00 56 1013.1
20260505185547 41 271 5.2 14.8 0.00 0.00 0.00 54 1013.1
20260505185047 41 344 6.1 14.8 0.00 0.00 0.00 54 1013.1
20260505184547 41 351 7.0 13.9 0.00 0.00 0.00 54 1013.1
20260505184047 41 317 7.0 15.6 0.00 0.00 0.00 54 1013.1
20260505183548 40 314 8.7 15.6 0.00 0.00 0.00 53 1013.0
20260505183047 41 343 6.1 13.9 0.00 0.00 0.00 53 1013.0
20260505182545 41 342 6.1 14.8 0.00 0.00 0.00 54 1013.0
20260505182049 41 273 6.1 16.5 0.00 0.00 0.00 54 1013.0
20260505181545 40 267 7.8 18.2 0.00 0.00 0.00 54 1012.9
20260505181045 40 292 8.7 18.2 0.00 0.00 0.00 54 1012.9
20260505180544 40 307 7.8 17.4 0.00 0.00 0.00 55 1012.9
20260505180052 40 355 8.7 17.4 0.00 0.00 0.00 54 1012.8
20260505175544 40 315 10.4 18.2 0.00 0.00 0.00 54 1012.8
20260505175047 40 321 8.7 18.2 0.00 0.00 0.00 54 1012.8
20260505174605 41 296 7.8 17.4 0.00 0.00 0.00 54 1012.8
20260505174044 41 281 10.4 20.0 0.00 0.00 0.00 54 1012.7
20260505173543 41 298 10.4 20.0 0.00 0.00 0.00 53 1012.5
20260505173044 41 177 9.6 18.2 0.00 0.00 0.00 53 1012.5
20260505172541 41 301 7.0 18.2 0.00 0.00 0.00 53 1012.4
20260505172042 40 9 8.7 18.2 0.00 0.00 0.00 54 1012.4
20260505171541 41 223 7.0 19.1 0.00 0.00 0.00 54 1012.2
20260505171041 41 17 5.2 19.1 0.00 0.00 0.00 53 1012.4
20260505170539 42 313 7.8 18.2 0.00 0.00 0.00 54 1012.3
20260505170048 41 337 9.6 19.1 0.00 0.00 0.00 55 1012.2
20260505165537 41 292 7.0 19.1 0.00 0.00 0.00 55 1012.2
20260505165037 41 319 9.6 14.8 0.00 0.00 0.00 56 1012.3
20260505164539 40 333 6.1 16.5 0.00 0.00 0.00 56 1012.3
20260505164039 40 291 11.3 16.5 0.00 0.00 0.00 56 1012.5
20260505163535 40 312 7.0 16.5 0.00 0.00 0.00 57 1012.4
20260505163039 41 321 8.7 16.5 0.00 0.00 0.00 57 1012.4
20260505162534 40 330 7.0 15.6 0.00 0.00 0.00 57 1012.3
20260505162034 40 331 7.0 17.4 0.00 0.00 0.00 56 1012.4
20260505161533 40 321 7.0 19.1 0.00 0.00 0.00 57 1012.3
20260505161035 40 261 8.7 19.1 0.00 0.00 0.00 57 1012.3
20260505160533 40 300 8.7 17.4 0.00 0.00 0.00 56 1012.2
20260505153034 40 284 7.8 16.5 0.00 0.00 0.00 60 1011.9
20260505152529 40 342 8.7 16.5 0.00 0.00 0.00 60 1011.8
20260505152026 40 313 7.0 17.4 0.00 0.00 0.00 60 1011.6
20260505151529 40 11 7.0 13.9 0.00 0.00 0.00 60 1011.5
20260505151025 40 319 8.7 13.9 0.00 0.00 0.00 60 1011.4
20260505150524 40 313 6.1 13.9 0.00 0.00 0.00 61 1011.4
20260505140511 37 336 5.2 11.3 0.00 0.00 0.00 66 1011.1